Weather History for Hamilton, OH

Change the Weather History Date:

Wednesday, December 19, 2012

  Actual Average (KCVG) Record (KCVG)
Temperature  
Mean Temperature 38 °F 33 °F  
Max Temperature 46 °F 40 °F 67 °F (1877)
Min Temperature 30 °F 26 °F -7 °F (1963)
Degree Days  
Heating Degree Days 27 32  
Month to date heating degree days 561  
Since 1 July heating degree days 1521  
Cooling Degree Days 0 0  
Month to date cooling degree days 0  
Year to date cooling degree days 1121  
Moisture  
Dew Point 34 °F    
Average Humidity 77    
Maximum Humidity 92    
Minimum Humidity 63    
Precipitation  
Precipitation 0.00 in 0.10 in 2.03 in (2002)
Month to date precipitation 2.05  
Year to date precipitation 41.20  
Snow  
Snow 0.00 in 0.20 in 2.90 in (2009)
Month to date snowfall 2.5  
Since 1 July snowfall 3.3  
Snow Depth -    
Sea Level Pressure  
Sea Level Pressure 30.01 in    
Wind  
Wind Speed 4 mph (SW)    
Max Wind Speed 12 mph    
Max Gust Speed 21 mph    
Visibility 8 miles    
Events      
T = Trace of Precipitation, MM = Missing Value Source: NWS Daily Summary

Daily Weather History Graph

Daily Weather History Graph

Search for Another Location

Airport:

Trip Planner

Search our weather history database for the weather conditions in past years. The results will help you decide how hot, cold, wet, or windy it might be!

Date:

Astronomy

Dec. 19, 2012 Rise Set
Actual Time 7:53 AM EST 5:17 PM EST
Civil Twilight 7:23 AM EST 5:47 PM EST
Nautical Twilight 6:49 AM EST 6:21 PM EST
Astronomical Twilight 6:16 AM EST 6:54 PM EST
Moon 12:04 PM EST (12/19) No Moon Set
Length of Visible Light 10h 24m
Length of Day
9h 23m
Waxing Crescent, 45% of the Moon is Illuminated
Dec 19
Waxing Crescent
Dec 20
First Quarter
Dec 28
Full
Jan 4
Last Quarter
Jan 11
New

Hourly Weather History & Observations

Time (EST) Temp. Windchill Dew Point Humidity Pressure Visibility Wind Dir Wind Speed Gust Speed Precip Events Conditions
12:53 AM 30.9 °F - 28.9 °F 92% 29.81 in 9.0 mi Calm Calm - N/A   Clear
1:53 AM 30.0 °F - 28.0 °F 92% 29.83 in 9.0 mi Calm Calm - N/A   Clear
2:53 AM 39.0 °F 34.0 °F 35.1 °F 86% 29.88 in 10.0 mi West 6.9 mph - N/A   Scattered Clouds
3:16 AM 42.8 °F 37.5 °F 35.6 °F 76% 29.88 in 10.0 mi West 9.2 mph 18.4 mph N/A   Mostly Cloudy
3:27 AM 41.0 °F 34.7 °F 33.8 °F 76% 29.89 in 10.0 mi West 10.4 mph 20.7 mph N/A   Scattered Clouds
3:53 AM 39.9 °F 35.1 °F 33.1 °F 77% 29.92 in 10.0 mi WNW 6.9 mph 16.1 mph N/A   Mostly Cloudy
4:53 AM 39.0 °F 35.7 °F 33.1 °F 79% 29.95 in 8.0 mi WNW 4.6 mph - N/A   Overcast
5:53 AM 39.0 °F 36.8 °F 34.0 °F 82% 29.99 in 7.0 mi WSW 3.5 mph - N/A   Overcast
6:53 AM 39.0 °F 35.7 °F 33.1 °F 79% 30.01 in 7.0 mi West 4.6 mph - N/A   Overcast
7:48 AM 37.4 °F 34.9 °F 32.0 °F 81% 30.01 in 6.0 mi West 3.5 mph - N/A   Haze
7:53 AM 36.0 °F - 32.0 °F 86% 30.03 in 5.0 mi Calm Calm - N/A   Partly Cloudy
8:53 AM 36.0 °F - 32.0 °F 86% 30.07 in 5.0 mi Calm Calm - N/A   Clear
9:53 AM 39.9 °F 37.8 °F 34.0 °F 79% 30.09 in 6.0 mi WSW 3.5 mph - N/A   Haze
10:53 AM 41.0 °F - 34.0 °F 76% 30.09 in 7.0 mi Calm Calm - N/A   Clear
11:53 AM 43.0 °F - 34.0 °F 71% 30.10 in 8.0 mi Calm Calm - N/A   Clear
12:53 PM 45.0 °F - 35.1 °F 68% 30.09 in 8.0 mi Calm Calm - N/A   Clear
1:53 PM 46.0 °F - 34.0 °F 63% 30.09 in 9.0 mi Calm Calm - N/A   Clear
2:53 PM 46.0 °F - 35.1 °F 66% 30.07 in 7.0 mi Calm Calm - N/A   Clear
3:53 PM 46.9 °F - 35.1 °F 63% 30.08 in 7.0 mi Calm Calm - N/A   Clear
4:53 PM 45.0 °F 40.6 °F 35.1 °F 68% 30.07 in 8.0 mi ENE 8.1 mph - N/A   Clear
5:53 PM 42.1 °F 40.2 °F 36.0 °F 79% 30.09 in 8.0 mi ENE 3.5 mph - N/A   Clear
6:53 PM 43.0 °F 40.3 °F 36.0 °F 76% 30.09 in 8.0 mi East 4.6 mph - N/A   Clear
7:53 PM 43.0 °F 38.2 °F 36.0 °F 76% 30.07 in 8.0 mi East 8.1 mph - N/A   Scattered Clouds
8:53 PM 44.1 °F 40.8 °F 36.0 °F 73% 30.07 in 8.0 mi ESE 5.8 mph - N/A   Overcast
9:53 PM 44.1 °F 38.6 °F 36.0 °F 73% 30.04 in 8.0 mi East 10.4 mph - N/A   Overcast
10:53 PM 44.1 °F 39.0 °F 37.0 °F 76% 30.02 in 8.0 mi ESE 9.2 mph - N/A   Overcast
11:53 PM 43.0 °F 36.8 °F 36.0 °F 76% 29.97 in 8.0 mi ESE 11.5 mph - N/A   Mostly Cloudy